Flight Track Log - Related Links

Times and Time Zones

All times are in EDT time to prevent confusion due to time zone crossing. See the SKW5631 flight status page for this flight to view local times or setup timezone preferences in your user account.

Time Position Orientation Groundspeed Altitude Reporting Facility
EDT Latitude Longitude Course Direction KTS MPH feet Rate Location/Type
Fri 10:38:43 AM 37.6500 -122.3667 360° North 148 170 1,400  Level Northern Cal TRACON
Fri 10:39:37 AM 37.6833 -122.3667 360° North 183 211 3,000 1,858 Climbing Northern Cal TRACON
Fri 10:40:36 AM 37.6833 -122.4167 270° West 212 244 4,900 1,842 Climbing Northern Cal TRACON
Fri 10:41:31 AM 37.6167 -122.4167 180° South 219 252 6,500 1,653 Climbing Northern Cal TRACON
Fri 10:42:14 AM 37.5750 -122.4181 182° South 221 254 7,600 1,788 Climbing Oakland Center
Fri 10:43:15 AM 37.5158 -122.4233 184° South 216 249 9,600 1,672 Climbing Oakland Center
Fri 10:44:16 AM 37.4539 -122.4244 181° South 221 254 11,000 1,377 Climbing Oakland Center
Fri 10:45:17 AM 37.3872 -122.4278 182° South 238 274 12,400 1,366 Climbing Oakland Center
Fri 10:46:19 AM 37.3206 -122.4317 183° South 241 277 13,800 1,268 Climbing Oakland Center
Fri 10:47:20 AM 37.2536 -122.4350 182° South 241 277 15,000 1,131 Climbing Oakland Center
Fri 10:48:21 AM 37.1858 -122.4397 183° South 244 281 16,100 1,131 Climbing Oakland Center
Fri 10:49:22 AM 37.1164 -122.4425 182° South 248 285 17,300 1,082 Climbing Oakland Center
Fri 10:50:23 AM 37.0533 -122.4189 163° South 255 293 18,300 976 Climbing Oakland Center
Fri 10:51:25 AM 36.9983 -122.3736 147° Southeast 242 278 19,300 1,024 Climbing Oakland Center
Fri 10:52:26 AM 36.9322 -122.3122 143° Southeast 246 283 20,400 984 Climbing Oakland Center
Fri 10:53:27 AM 36.8764 -122.2583 142° Southeast 253 291 21,300 885 Climbing Oakland Center
Fri 10:54:28 AM 36.8208 -122.2039 142° Southeast 256 295 22,200 738 Climbing Oakland Center
Fri 10:55:29 AM 36.7644 -122.1481 142° Southeast 261 300 22,800 393 Climbing Oakland Center
Fri 10:56:30 AM 36.7019 -122.0953 146° Southeast 271 312 23,000 98 Climbing Oakland Center
Fri 10:57:32 AM 36.6383 -122.0322 141° Southeast 289 333 23,000  Level Oakland Center
Fri 10:58:33 AM 36.5747 -121.9728 143° Southeast 288 331 23,000  Level Oakland Center
Fri 10:59:34 AM 36.5119 -121.9131 143° Southeast 285 328 23,000  Level Oakland Center
Fri 11:00:35 AM 36.4500 -121.8528 142° Southeast 284 327 23,000  Level Oakland Center
Fri 11:01:36 AM 36.3831 -121.7919 144° Southeast 282 325 23,000  Level Oakland Center
Fri 11:02:37 AM 36.3203 -121.7328 143° Southeast 282 325 23,000  Level Oakland Center
Fri 11:03:39 AM 36.2581 -121.6744 143° Southeast 283 326 23,000  Level Oakland Center
Fri 11:04:40 AM 36.1956 -121.6172 144° Southeast 280 322 23,000  Level Oakland Center
Fri 11:05:41 AM 36.1208 -121.5456 142° Southeast 283 326 23,000  Level Oakland Center
Fri 11:06:42 AM 36.0578 -121.4872 143° Southeast 284 327 23,000  Level Oakland Center
Fri 11:07:43 AM 35.9950 -121.4283 143° Southeast 285 328 23,000  Level Oakland Center
Fri 11:08:44 AM 35.9328 -121.3692 142° Southeast 283 326 23,000  Level Oakland Center
Fri 11:09:45 AM 35.8694 -121.3103 143° Southeast 285 328 23,000  Level Oakland Center
Fri 11:10:47 AM 35.8064 -121.2514 143° Southeast 285 328 23,000  Level Oakland Center
Fri 11:11:48 AM 35.7447 -121.1908 141° Southeast 285 328 23,000  Level Oakland Center
Fri 11:12:49 AM 35.6806 -121.1333 144° Southeast 286 329 23,000  Level Oakland Center
Fri 11:13:50 AM 35.6175 -121.0747 143° Southeast 285 328 23,000  Level Oakland Center
Fri 11:14:51 AM 35.5425 -121.0044 143° Southeast 284 327 23,000  Level Oakland Center
Fri 11:15:53 AM 35.4794 -120.9483 144° Southeast 282 325 23,000  Level Oakland Center
Fri 11:16:54 AM 35.4164 -120.8911 144° Southeast 283 326 23,000  Level Oakland Center
Fri 11:17:55 AM 35.3536 -120.8336 143° Southeast 283 326 23,000  Level Oakland Center
Fri 11:18:29 AM 35.3222 -120.8067 145° Southeast 282 325 23,000 -375 Level Los Angeles Center
Fri 11:19:31 AM 35.2594 -120.7494 143° Southeast 281 323 22,400 -968 Descending Los Angeles Center
Fri 11:20:33 AM 35.1892 -120.6864 144° Southeast 308 354 21,000 -1,742 Descending Los Angeles Center
Fri 11:21:35 AM 35.1067 -120.6111 143° Southeast 309 356 18,800 -1,839 Descending Los Angeles Center
Fri 11:22:37 AM 35.0389 -120.5467 142° Southeast 308 354 17,200 -1,516 Descending Los Angeles Center
Fri 11:24:41 AM 34.9094 -120.4256 142° Southeast 290 334 14,100 -1,567 Descending Los Angeles Center
Fri 11:25:37 AM 34.8461 -120.3694 144° Southeast 280 322 12,500 -1,676 Descending Los Angeles Center
Fri 11:26:32 AM 34.7900 -120.3192 144° Southeast 265 305 11,000 -1,761 Descending Los Angeles Center
Fri 11:27:26 AM 34.7375 -120.2758 146° Southeast 257 296 9,300 -1,520 Descending Los Angeles Center
Fri 11:27:47 AM 34.7292 -120.2661 136° Southeast 258 297 9,100 -217 Descending Los Angeles Center
Fri 11:28:49 AM 34.6711 -120.2186 146° Southeast 254 292 9,000 -151 Descending Los Angeles Center
Fri 11:29:46 AM 34.6117 -120.1644 143° Southeast 228 262 8,800 -872 Descending Los Angeles Center
Fri 11:30:46 AM 34.5606 -120.1183 143° Southeast 240 276 7,300 -1,388 Descending Los Angeles Center
Fri 11:31:47 AM 34.5042 -120.0683 144° Southeast 239 275 6,000 -991 Descending Los Angeles Center
Fri 11:32:41 AM 34.4586 -120.0283 144° Southeast 224 258 5,400 -771 Descending Los Angeles Center
Fri 11:32:57 AM 34.4533 -120.0219 135° Southeast 228 262 5,100 -1,636 Descending Los Angeles Center
Fri 11:33:36 AM 34.4319 -119.9953 134° Southeast 164 189 3,900 -1,548 Descending Los Angeles Center
Fri 11:33:59 AM 34.4297 -119.9831 102° East 164 189 3,500 -1,672 Descending Los Angeles Center
Fri 11:34:37 AM 34.4258 -119.9478 98° East 141 162 2,200 -1,839 Descending Los Angeles Center
Fri 11:35:01 AM 34.4244 -119.9294 95° East 142 163 1,600 -1,300 Descending Los Angeles Center
Fri 11:35:37 AM 34.4267 -119.9031 84° East 133 153 900 -968 Descending Los Angeles Center
Fri 11:36:03 AM 34.4292 -119.8844 81° East 134 154 600 -692 Descending Los Angeles Center
Fri 11:38:00 AM 34.4262 -119.8415 90° East  Level Estimated

Login

Don't have an account? Register now (free) for customized features, flight alerts, and more!